Location: Angwan Shehu
(11.2514°N, 7.4613°E)
Time: 12:49:11
(UTC+00:00)

COSMO-SKYMED 1 - Pass Details

Date: 14 November 2019
Orbit: 621 x 623 km, 97.9° (Epoch: 06 December)

Event Time Altitude Azimuth Distance (km) Brightness Sun altitude
Rises 17:47:35 0° 356° (N) 2,888 5.9 -11.2°
Reaches altitude 10° 17:49:57 10° 346° (NNW) 1,982 5.1 -11.8°
Maximum altitude 17:53:46 31° 283° (WNW) 1,084 4.5 -12.7°
Drops below altitude 10° 17:57:35 10° 221° (SW) 1,983 6.1 -13.6°
Sets 17:59:57 0° 211° (SSW) 2,889 6.8 -14.1°
